STARLINK-36529, 67457

Orbit data source: Space-Track

STARLINK-36529, 67457 is a payload satellite owned by SpaceX/Seattle (US) in LEO that was launched on Wed, 14 Jan 2026 UTC via an FALCON 9 launch vehicle from the Air Force Eastern Test Range (AFETR). Payload-class satellites include a variety of spacecraft equipped with specific instruments for various scientific and technological missions. These include communications satellites like Starlink; space stations such as the ISS; scientific satellites like the Hubble; Earth observation satellites from companies like Planet Labs, Umbra, and HawkEye 360; GPS; miniature CubeSats for education and research; and military/defense satellites.

Loading next visibility...
Identifier
67457, 2026-008N
Orbit
LEO
Country
Flag of USUS
Related business
Manufacturer
SpaceX/Seattle
Mission
Operational spacecraft
Bus & Motor
STARLINK V2MO, Unknown motor
Mass
575 kg wet, ~530 kg dry
Launch date (UTC)
2026-01-14 (2 months ago)
Launch vehicle
FALCON 9
Launch site
Air Force Eastern Test Range (AFETR)
Object type
Payload
Rocket body
Debris
Shape & HBR
Unknown shape, 17.7 m
Radar Cross Section
RCS unknown

Expand to show TLE details & history
Last TLE update: 22 hours ago

TLE from 22 hours ago
0 STARLINK-36529
1 67457U 26008N   26062.50180129  .00030695  00000-0  11195-2 0  9999
2 67457  42.9977 240.3615 0001229 283.4102  76.6612 15.27603585  8620
Epoch: 2026-03-03T12:02Z
TLE epoch observation values (Epoch: 2026-03-03T12:02:35.631Z)
Latitude
-0.00006°
Longitude
-101.56697°
Altitude
482.559 km
Speed
7.626 km/s
True Right ascension
16h 01m 26s
True Declination
0° 00' 00"
Sunlit
Object was in daylight at epoch
Visualization orbit readout
Latitude
Unknown
Longitude
Unknown
Altitude
Unknown
Speed
Unknown
Apparent Right ascension
Unknown
Apparent Declination
Unknown
Sunlit
N/A
Visualization observer readout
Local Sidereal Time
14:15:15
Azimuth
Unknown
Elevation
Unknown
Doppler factor
Unknown
Orbital elements
Apogee altitude
485.768 km
Perigee altitude
484.081 km
Semi-major axis
6,863.061 km
Eccentricity
0.00012
Inclination
42.9977°
RAAN
240.3615°
Arg. of periapsis
283.4102°
True anomaly
76.6749°
Mean anomaly
76.6612°
Eccentric anomaly
76.66805°
Mean motion
3.81739 °/min
Orbital period
94.31 mins
BSTAR
0.0011195
Loading maneuver chart data...
Computing Atmospheric mass density...
Loading historical data...
Loading historical data...
Loading historical data...
Loading historical data...
Loading historical data...
Loading historical data...
Loading historical data...

Documentation

Showing up to 5 results
|